Погода Большерецкий

Погода Большерецкий : погода сейчас, прогноз погоды и архив. Всё, что Вы хотите узнать о погоде Большерецкий!

Поиск расширенной информации на нашем сайте:

Другие новости

Новости СМИ2

Главная страница сайта

Новости сайта

03.07.2017

Напоминаем, что на нашем специализированном сайте Метеоцентр.Азия вы можете получить высокодетализированные автоматические прогнозы погоды по пунктам России, СНГ и мира в авиационном формате (включающие направление и скорость ветра, видимость, явления погоды, количество и форму облачности, нижнюю и верхнюю границу облачности).


Погода Большерецкий - сегодня

Время (UTC), дата Ветер
(°,м/с) 
Видим.   Явления Облачность Т
(°С)
Тd
(°С)
f(%) Тe
(°С)
Pmin
(гПа)
dP
(гПа)
Po
(мм)
O2
(г/м3)
Тmin Tmax R s Состояние
почвы
18 18.05.18 220 (ЮЗ) 20000 м    10/10 600 м 
[Sc]
+2.8 +2.7 99 +4  1005.4  2.3  751  299           
00 19.05.18 260 (З) 20000 м    10/0 средняя 
[As trans]
+8.6 +1.5 61 +10  1009.8  2.3  755  295           
03 19.05.18 290 (З) 20000 м    10/4 600 м верхняя 
[Sc|Cs]
+10.5 +2.2 56 +10  1010.9  1.1  755  293           
06 19.05.18 300 (СЗ) 20000 м    8/4 600 м верхняя 
[Cu Sc|Ci sp]
+7.3 +3 74 +6  1012.7  1.7  757  297           
12 19.05.18 170 (Ю) 20000 м    4/0 верхняя 
[Ci fib]
+1.4 +1.4 100 +2  1018.7  2.9  761  305           
15 19.05.18 210 (ЮЗ) 20000 м    ясно 
+1 +0.9 99 +2  1018.8  0.1  761  305           
18 19.05.18 150 (ЮВ) 20000 м    10/0 средняя, верхняя 
[Ac lent|Ci fib]
+0.5 -0.1 96 1019.8  762  306           
03 20.05.18 300 (СЗ) 20000 м    8/8 600 м 
[Sc]
+8.4 +3.9 73 +7  1018.7  -1.5  761  297           
06 20.05.18 320 (СЗ) 20000 м    8/3 600 м средняя 
[Sc|Ac trans]
+6.7 +3.7 81 +5  1017.2  -1.5  760  298           
12 20.05.18 160 (Ю) 20000 м    8/8 600 м 
[Sc]
+3.6 +3.1 97 +2  1016  -0.2  759  301           
15 20.05.18 220 (ЮЗ) 20000 м    10/10 600 м 
[Sc]
+3.7 +0 77 +3  1014.9  -1.1  758  301           
18 20.05.18 350 (С) 20000 м    10/10 600 м 
[Sc]
+2.6 +0.2 84 +1  1013.6  -1.4  757  302           
06 21.05.18 060 (СВ) 3{10}  20000 м    10/10 600 м 
[Sc]
+7.2 -0.8 57 +6  1004.4  -1.9  751  295           
09 21.05.18 360 (С) 20000 м  слаб. ливневой дождь  10/10 600 м кучево-дожд. 
[Cb cap]
+7.3 +2.1 70 +5  1001.2  -3.1  748  293    +9.7       
18 21.05.18 290 (З) 20000 м  в посл. час ливневой дождь  10/6 600 м кучево-дожд., средняя 
[Cb cap|Ac und]
+3.3 +2.8 97 +1  995.2  -1.3  744  296           
21 21.05.18 330 (СЗ) 20000 м  в посл. час ливневой дождь  10/10 600 м кучево-дожд. 
[Cb cap]
+5.8 +4.9 94 +4  993.8  -1.3  743  292  +3.1      влажная 
09 22.05.18 310 (СЗ) 5-10{11}  20000 м  в посл. час ливневой дождь  10/10 300 м кучево-дожд. 
[Cb cap]
+1.9 +1 94 -1  995.4  0.8  744  297    +6.1     
15 22.05.18 310 (СЗ) н/о    н/о 
+1.7 +0.8 94 996.9  0.5  745  298           
18 22.05.18 300 (СЗ) 20000 м  {ливн. осадки}  10/10 300 м 
[St]
+0.9 +0.8 99 -1  997.6  0.7  745  299           
21 22.05.18 300 (СЗ) 0500 м  слаб. морось{туман}  ?/?  
+1.6 +1.6 100 998.9  1.4  746  299  +0.8    0.3    влажная 
00 23.05.18 270 (З) 0500 м  туман{морось}  ?/?  
+2.6 +2.5 99 +1  999.6  0.7  747  298           
03 23.05.18 270 (З) 20000 м  {туман}  10/10 300 м 
[St]
+5 +2.7 85 +5  1000.4  0.8  748  295           
06 23.05.18 300 (СЗ) 20000 м  {туман}  10/10 300 м 
[St]
+4.1 +2.5 89 +2  1002.3  1.9  749  297           
12 23.05.18 310 (СЗ) 20000 м    10/10 600 м 
[Sc]
+2.5 +2.2 98 1006  1.6  752  300           
15 23.05.18 330 (СЗ) 0500 м  туман  ?/?  
+0.8 +0.8 100 -1  1007.4  1.4  753  302           
Время (UTC), дата Ветер
(°,м/с) 
Видим.   Явления Облачность Т
(°С)
Тd
(°С)
f(%) Тe
(°С)
Pmin
(гПа)
dP
(гПа)
Po
(мм)
O2
(г/м3)
Тmin Tmax R s Состояние
почвы

Для получения пояснительной информации подведите курсор к названию столбца.

ПОГОДА Большерецкий - архив

Всё, что Вы хотите узнать о погоде Большерецкий - удобно и подробно!

Выберите нужную дату (начиная с 1 января 2015* года) и нажмите кнопку "Найти".
Будут отображены архивные сводки погоды по пункту Большерецкий, начиная с указанной даты.


Отображать данные в формате CSV (для использования в таблицах Excel)


Внимание! Наш архив погоды предназначен исключительно для личного некоммерческого использования в познавательных целях. Если Вам необходимы официальные справки о состоянии погоды (для производственных, юридических, коммерческих и т.п. целей), обращайтесь в органы Росгидромета.

*Примечание: данная дата относится к архиву по метеостанциям СССР (Россия, СНГ, Балтия).
Архив по метеостанциям Зарубежной Европы и Азии (кроме Китая) хранится 10 дней, по другим регионам земного шара (Китай, Африка, Америка, Австралия, Океания) - 1 день.

Большерецкий - район местоположения метеостанции


Название, широта, долгота, высота метеостанции:
Большерецкий 52.9°ш. 156.6°д. 27 м над ур. моря [Российская Федерация]

Дополнительная информация

В oтличие oт бoльшинства пoгoдных сайтoв мы публикуем пoдрoбную метеoинфoрмацию в детальнoм прoфессиoнальнoм фoрмате.

Характеристики температуры и влажнoсти вoздуха измеряются на высoте 2 м в тени вдали oт зданий и деревьев.
Скoрoсть ветра измеряется на высoте 10 м (на урoвне рoста челoвека скoрoсть ветра ниже в 1.5-2 раза). Если метеoстанция нахoдится в гoрoде или в лесу, тo скoрoсть ветра занижена на 2-4 м/с пo сравнению с oткрытым местoм. Скoрoсть ветра над акватoриями крупных рек и oзёр, а также на вершинах хoлмoв на 2-5 м/с выше, чем в oбычных услoвиях.
Атмoсфернoе давление в разных тoчках местнoсти мoжет значительнo oтличаться oт давления на метеoстанции, в зависимoсти oт услoвий рельефа (при пoдъёме на 10 м давление пoнижается примернo на 1 мм рт.ст.).